Weather History for KHIE - February, 2013

Change the Weather History Date:

Saturday, February 9, 2013

  Actual Average (K1V4) Record (K1V4)
Temperature  
Mean Temperature 6 °F 18 °F  
Max Temperature 15 °F 30 °F 48 °F (1949)
Min Temperature -9 °F 6 °F -36 °F (1934)
Degree Days  
Heating Degree Days 60 47  
Month to date heating degree days 429  
Since 1 July heating degree days 4878  
Cooling Degree Days 0 0  
Month to date cooling degree days 0  
Year to date cooling degree days 0  
Moisture  
Dew Point 4 °F    
Average Humidity 75    
Maximum Humidity 85    
Minimum Humidity 56    
Precipitation  
Precipitation 0.12 in 0.08 in 1.30 in (1906)
Month to date precipitation 0.74  
Year to date precipitation 3.25  
Sea Level Pressure  
Sea Level Pressure 29.98 in    
Wind  
Wind Speed 10 mph (North)    
Max Wind Speed 16 mph    
Max Gust Speed 28 mph    
Visibility 3 miles    
Events Snow    
T = Trace of Precipitation, MM = Missing Value Source: NWS Daily Summary

Daily Weather History Graph

Daily Weather History Graph

Search for Another Location

Airport or City:

Trip Planner

Search our weather history database for the weather conditions in past years. The results will help you decide how hot, cold, wet, or windy it might be!

Date:

Astronomy

Feb. 09, 2013 Rise Set
Actual Time 6:54 AM EST 5:07 PM EST
Civil Twilight 6:23 AM EST 5:37 PM EST
Nautical Twilight 5:49 AM EST 6:11 PM EST
Astronomical Twilight 5:15 AM EST 6:45 PM EST
Moon 6:03 AM EST (2/9) 4:47 PM EST (2/9)
Length of Visible Light 11h 13m
Length of Day
10h 13m
Waning Crescent, 0% of the Moon is Illuminated
Feb 9
Waning Crescent
Feb 10
New
Feb 17
First Quarter
Feb 25
Full
Mar 4
Last Quarter

Hourly Weather History & Observations

Time (EST) Temp. Windchill Dew Point Humidity Pressure Visibility Wind Dir Wind Speed Gust Speed Precip Events Conditions
12:41 AM 14.0 °F -0.2 °F 8.6 °F 79% 29.83 in 2.0 mi ENE 12.7 mph 26.5 mph 0.00 in Snow Light Snow
12:52 AM 15.1 °F 0.5 °F 8.1 °F 74% 29.88 in 2.5 mi ENE 13.8 mph 21.9 mph 0.00 in Snow Light Snow
1:16 AM 15.8 °F 5.1 °F 8.6 °F 73% 29.82 in 3.0 mi NE 8.1 mph 18.4 mph 0.00 in Snow Light Snow
1:39 AM 14.0 °F 0.5 °F 8.6 °F 79% 29.82 in 2.5 mi ENE 11.5 mph - 0.00 in Snow Light Snow
1:52 AM 15.1 °F 4.2 °F 9.0 °F 77% 29.89 in 2.5 mi ENE 8.1 mph - 0.00 in Snow Light Snow
2:32 AM 14.0 °F 5.1 °F 8.6 °F 79% 29.82 in 1.8 mi North 5.8 mph - 0.00 in Snow Light Snow
2:44 AM 12.2 °F -0.2 °F 8.6 °F 85% 29.83 in 1.8 mi North 9.2 mph - 0.01 in Snow Light Snow
2:50 AM 12.2 °F -0.2 °F 8.6 °F 85% 29.83 in 2.0 mi NNE 9.2 mph - 0.01 in Snow Light Snow
2:52 AM 12.9 °F -0.2 °F 8.1 °F 81% 29.89 in 2.0 mi North 10.4 mph - 0.01 in Snow Light Snow
3:03 AM 12.2 °F -1.8 °F 8.6 °F 85% 29.82 in 1.8 mi North 11.5 mph - 0.00 in Snow Light Snow
3:52 AM 12.0 °F 1.5 °F 7.0 °F 80% 29.91 in 1.2 mi NNE 6.9 mph - 0.01 in Snow Light Snow
4:29 AM 12.2 °F 4.3 °F 8.6 °F 85% 29.85 in 1.0 mi NNE 4.6 mph - 0.02 in Snow Light Snow
4:48 AM 12.2 °F 1.7 °F 6.8 °F 79% 29.84 in 0.8 mi North 6.9 mph - 0.03 in Snow Light Snow
4:52 AM 12.0 °F 0.5 °F 7.0 °F 80% 29.91 in 0.8 mi North 8.1 mph - 0.04 in Snow Light Snow
5:13 AM 10.4 °F -4.1 °F 6.8 °F 85% 29.84 in 1.0 mi North 11.5 mph - 0.01 in Snow Light Snow
5:28 AM 10.4 °F -3.3 °F 6.8 °F 85% 29.84 in 1.2 mi North 10.4 mph 19.6 mph 0.01 in Snow Light Snow
5:40 AM 10.4 °F -1.5 °F 5.0 °F 79% 29.84 in 1.2 mi NNW 8.1 mph - 0.02 in Snow Light Snow
5:52 AM 10.0 °F -2.9 °F 5.0 °F 80% 29.91 in 1.2 mi NNW 9.2 mph - 0.02 in Snow Light Snow
6:52 AM 9.0 °F -6.6 °F 3.0 °F 77% 29.94 in 1.5 mi North 12.7 mph 18.4 mph 0.01 in Snow Light Snow
7:33 AM 8.6 °F -7.7 °F 3.2 °F 79% 29.89 in 0.8 mi North 13.8 mph 27.6 mph 0.01 in Snow Light Snow
7:52 AM 8.1 °F -8.4 °F 1.9 °F 76% 29.97 in 1.0 mi North 13.8 mph 20.7 mph 0.01 in Snow Light Snow
8:14 AM 8.6 °F -7.7 °F 1.4 °F 73% 29.91 in 0.8 mi NNW 13.8 mph - 0.00 in Snow Light Snow
8:22 AM 8.6 °F -8.9 °F 1.4 °F 73% 29.91 in 1.0 mi NNW 16.1 mph 23.0 mph 0.00 in Snow Light Snow
8:38 AM 8.6 °F -5.5 °F 1.4 °F 73% 29.92 in 0.8 mi NNW 10.4 mph 19.6 mph 0.00 in Snow Light Snow
8:52 AM 8.1 °F -9.0 °F 1.9 °F 76% 30.00 in 0.8 mi NNW 15.0 mph - 0.00 in Snow Light Snow
9:52 AM 8.1 °F -7.0 °F 1.9 °F 76% 30.02 in 1.0 mi NNW 11.5 mph 19.6 mph 0.00 in Snow Light Snow
10:02 AM 8.6 °F -7.7 °F 1.4 °F 73% 29.95 in 1.5 mi NNW 13.8 mph 19.6 mph 0.00 in Snow Light Snow
10:10 AM 8.6 °F -5.5 °F 1.4 °F 73% 29.95 in 1.5 mi NNW 10.4 mph 19.6 mph 0.00 in Snow Light Snow
10:33 AM 8.6 °F -6.3 °F 1.4 °F 73% 29.96 in 1.0 mi NNW 11.5 mph - 0.00 in Snow Light Snow
10:44 AM 8.6 °F -6.3 °F 1.4 °F 73% 29.97 in 0.8 mi North 11.5 mph 18.4 mph 0.00 in Snow Light Snow
10:52 AM 9.0 °F -5.9 °F 3.0 °F 77% 30.04 in 0.5 mi NNW 11.5 mph 18.4 mph 0.00 in Snow Snow
11:52 AM 9.0 °F -5.1 °F 3.0 °F 77% 30.06 in 0.5 mi NNW 10.4 mph - 0.01 in Snow Snow
12:20 PM 10.4 °F -4.8 °F 3.2 °F 73% 29.99 in 0.8 mi NNW 12.7 mph - 0.00 in Snow Light Snow
12:30 PM 10.4 °F -3.3 °F 3.2 °F 73% 29.99 in 1.0 mi NNW 10.4 mph - 0.00 in Snow Light Snow
12:45 PM 10.4 °F -4.8 °F 3.2 °F 73% 29.99 in 1.5 mi North 12.7 mph 18.4 mph 0.00 in Snow Light Snow
12:52 PM 10.9 °F -4.1 °F 3.9 °F 73% 30.06 in 1.8 mi NNW 12.7 mph 18.4 mph 0.00 in Snow Light Snow
1:21 PM 12.2 °F 1.7 °F 5.0 °F 73% 29.99 in 1.2 mi North 6.9 mph - 0.00 in Snow Light Snow
1:42 PM 12.2 °F 1.7 °F 5.0 °F 73% 29.99 in 1.5 mi Variable 6.9 mph - 0.01 in Snow Light Snow
1:52 PM 12.9 °F 1.6 °F 5.0 °F 71% 30.06 in 1.8 mi NNW 8.1 mph - 0.01 in Snow Light Snow
1:59 PM 12.2 °F -1.8 °F 5.0 °F 73% 29.99 in 2.0 mi North 11.5 mph - 0.00 in Snow Light Snow
2:24 PM 12.2 °F 0.7 °F 5.0 °F 73% 30.00 in 4.0 mi North 8.1 mph 16.1 mph 0.00 in Snow Light Snow
2:33 PM 12.2 °F 2.9 °F 3.2 °F 67% 30.01 in 7.0 mi NNE 5.8 mph - 0.00 in Snow Light Snow
2:52 PM 14.0 °F 8.2 °F 5.0 °F 67% 30.09 in 9.0 mi NNW 3.5 mph - 0.00 in Snow Light Snow
3:20 PM 14.0 °F 0.5 °F 3.2 °F 62% 30.03 in 4.0 mi NNW 11.5 mph 19.6 mph 0.00 in Snow Light Snow
3:52 PM 12.9 °F -0.2 °F 3.0 °F 65% 30.12 in 9.0 mi NNW 10.4 mph 20.7 mph 0.00 in   Overcast
4:52 PM 12.9 °F 2.6 °F 3.0 °F 65% 30.14 in 10.0 mi North 6.9 mph - N/A   Overcast
5:52 PM 12.0 °F -1.3 °F 1.0 °F 61% 30.18 in 10.0 mi North 10.4 mph 19.6 mph N/A   Scattered Clouds
6:52 PM 10.9 °F -2.6 °F -0.0 °F 61% 30.21 in 10.0 mi NNW 10.4 mph 19.6 mph N/A   Clear
7:52 PM 10.0 °F - -0.9 °F 61% 30.24 in 10.0 mi Calm Calm - N/A   Clear
8:52 PM 10.0 °F - -2.9 °F 56% 30.27 in 10.0 mi Calm Calm - N/A   Clear
9:52 PM 1.0 °F - -4.0 °F 79% 30.30 in 10.0 mi Calm Calm - N/A   Clear
10:52 PM -4.0 °F - -9.0 °F 79% 30.30 in 10.0 mi Calm Calm - N/A   Clear
11:52 PM -9.0 °F - -14.1 °F 79% 30.32 in 10.0 mi Calm Calm - N/A   Clear